| time (UTC) | temp F | wind direction | speed MPH | gust MPH | rain 1hr in | rain 24hr in | rain mn in | humidity % | barometer mb |
| 20260507024003 | 44 | 237 | 0.0 | 8.0 | 0.00 | 0.00 | 0.00 | 47 | 1015.3 |
| 20260507023502 | 45 | 238 | 4.0 | 10.0 | 0.00 | 0.00 | 0.00 | 46 | 1015.4 |
| 20260507023008 | 45 | 311 | 4.0 | 11.0 | 0.00 | 0.00 | 0.00 | 46 | 1015.3 |
| 20260507022506 | 45 | 294 | 4.0 | 11.0 | 0.00 | 0.00 | 0.00 | 45 | 1015.2 |
| 20260507021959 | 45 | 290 | 4.0 | 12.0 | 0.00 | 0.00 | 0.00 | 45 | 1015.2 |
| 20260507021510 | 45 | 254 | 6.0 | 12.0 | 0.00 | 0.00 | 0.00 | 45 | 1015.1 |
| 20260507021008 | 46 | 13 | 7.0 | 12.0 | 0.00 | 0.00 | 0.00 | 45 | 1015.1 |
| 20260507020503 | 46 | 275 | 5.0 | 12.0 | 0.00 | 0.00 | 0.00 | 45 | 1015.0 |
| 20260507020013 | 46 | 268 | 4.0 | 12.0 | 0.00 | 0.00 | 0.00 | 45 | 1014.9 |
| 20260507015506 | 46 | 295 | 3.0 | 9.0 | 0.00 | 0.00 | 0.00 | 45 | 1014.7 |
| 20260507015005 | 46 | 227 | 2.0 | 12.0 | 0.00 | 0.00 | 0.00 | 45 | 1014.6 |
| 20260507014512 | 46 | 299 | 7.0 | 13.0 | 0.00 | 0.00 | 0.00 | 45 | 1014.5 |
| 20260507014007 | 47 | 288 | 8.0 | 16.0 | 0.00 | 0.00 | 0.00 | 44 | 1014.5 |
| 20260507013503 | 47 | 232 | 7.0 | 16.0 | 0.00 | 0.00 | 0.00 | 44 | 1014.5 |
| 20260507013020 | 47 | 283 | 6.0 | 20.0 | 0.00 | 0.00 | 0.00 | 44 | 1014.4 |
| 20260507012507 | 47 | 205 | 9.0 | 18.0 | 0.00 | 0.00 | 0.00 | 43 | 1014.4 |
| 20260507012003 | 47 | 303 | 5.0 | 15.0 | 0.00 | 0.00 | 0.00 | 43 | 1014.2 |
| 20260507011513 | 47 | 249 | 6.0 | 19.0 | 0.00 | 0.00 | 0.00 | 43 | 1014.2 |
| 20260507011007 | 47 | 183 | 7.0 | 19.0 | 0.00 | 0.00 | 0.00 | 43 | 1014.1 |
| 20260507010503 | 48 | 281 | 9.0 | 19.0 | 0.00 | 0.00 | 0.00 | 43 | 1014.0 |
| 20260507010015 | 48 | 270 | 6.0 | 19.0 | 0.00 | 0.00 | 0.00 | 43 | 1013.9 |
| 20260507005507 | 48 | 278 | 11.0 | 19.0 | 0.00 | 0.00 | 0.00 | 42 | 1013.9 |
| 20260507005004 | 48 | 258 | 7.0 | 13.0 | 0.00 | 0.00 | 0.00 | 42 | 1013.7 |
| 20260507004513 | 49 | 249 | 5.0 | 11.0 | 0.00 | 0.00 | 0.00 | 43 | 1013.6 |
| 20260507004007 | 49 | 285 | 3.0 | 11.0 | 0.00 | 0.00 | 0.00 | 42 | 1013.6 |
| 20260507003504 | 49 | 298 | 7.0 | 14.0 | 0.00 | 0.00 | 0.00 | 42 | 1013.7 |
| 20260507003014 | 49 | 282 | 3.0 | 14.0 | 0.00 | 0.00 | 0.00 | 42 | 1013.7 |
| 20260507002506 | 49 | 240 | 4.0 | 14.0 | 0.00 | 0.00 | 0.00 | 41 | 1013.6 |
| 20260507002003 | 50 | 351 | 8.0 | 15.0 | 0.00 | 0.00 | 0.00 | 41 | 1013.6 |
| 20260507001544 | 50 | 299 | 8.0 | 15.0 | 0.00 | 0.00 | 0.00 | 40 | 1013.6 |
| 20260507001006 | 50 | 269 | 3.0 | 14.0 | 0.00 | 0.00 | 0.00 | 41 | 1013.5 |
| 20260507000505 | 50 | 331 | 6.0 | 14.0 | 0.00 | 0.00 | 0.00 | 40 | 1013.5 |
| 20260507000023 | 50 | 264 | 8.0 | 14.0 | 0.00 | 0.00 | 0.00 | 40 | 1013.5 |
| 20260506235507 | 50 | 219 | 6.0 | 12.0 | 0.00 | 0.00 | 0.00 | 40 | 1013.5 |
| 20260506235003 | 50 | 279 | 8.0 | 15.0 | 0.00 | 0.00 | 0.00 | 40 | 1013.5 |
| 20260506234520 | 51 | 229 | 6.0 | 15.0 | 0.00 | 0.00 | 0.00 | 40 | 1013.4 |
| 20260506234007 | 51 | 189 | 5.0 | 15.0 | 0.00 | 0.00 | 0.00 | 39 | 1013.4 |
| 20260506233510 | 51 | 259 | 2.0 | 12.0 | 0.00 | 0.00 | 0.00 | 39 | 1013.4 |
| 20260506233021 | 51 | 298 | 4.0 | 12.0 | 0.00 | 0.00 | 0.00 | 39 | 1013.3 |
| 20260506232503 | 51 | 290 | 4.0 | 11.0 | 0.00 | 0.00 | 0.00 | 38 | 1013.2 |
| 20260506232003 | 51 | 325 | 3.0 | 12.0 | 0.00 | 0.00 | 0.00 | 38 | 1013.2 |
| 20260506231523 | 51 | 217 | 2.0 | 14.0 | 0.00 | 0.00 | 0.00 | 38 | 1013.1 |
| 20260506231003 | 51 | 316 | 6.0 | 14.0 | 0.00 | 0.00 | 0.00 | 38 | 1013.2 |
| 20260506230507 | 51 | 244 | 8.0 | 16.0 | 0.00 | 0.00 | 0.00 | 37 | 1013.2 |
| 20260506230020 | 52 | 242 | 3.0 | 16.0 | 0.00 | 0.00 | 0.00 | 38 | 1013.2 |
| 20260506225503 | 52 | 224 | 6.0 | 11.0 | 0.00 | 0.00 | 0.00 | 38 | 1013.2 |
| 20260506225003 | 52 | 252 | 2.0 | 11.0 | 0.00 | 0.00 | 0.00 | 39 | 1013.2 |
| 20260506224522 | 51 | 267 | 6.0 | 16.0 | 0.00 | 0.00 | 0.00 | 38 | 1013.1 |
| 20260506224003 | 51 | 105 | 7.0 | 16.0 | 0.00 | 0.00 | 0.00 | 38 | 1013.2 |
| 20260506223506 | 51 | 257 | 9.0 | 14.0 | 0.00 | 0.00 | 0.00 | 37 | 1013.2 |
| 20260506223031 | 51 | 298 | 6.0 | 12.0 | 0.00 | 0.00 | 0.00 | 37 | 1013.1 |
| 20260506222505 | 51 | 246 | 8.0 | 13.0 | 0.00 | 0.00 | 0.00 | 38 | 1013.0 |
| 20260506222009 | 52 | 275 | 7.0 | 13.0 | 0.00 | 0.00 | 0.00 | 37 | 1013.0 |
| 20260506221526 | 52 | 254 | 4.0 | 13.0 | 0.00 | 0.00 | 0.00 | 37 | 1013.0 |
| 20260506221003 | 52 | 291 | 4.0 | 14.0 | 0.00 | 0.00 | 0.00 | 37 | 1013.0 |
| 20260506220506 | 52 | 265 | 9.0 | 15.0 | 0.00 | 0.00 | 0.00 | 37 | 1012.9 |
| 20260506220024 | 52 | 293 | 6.0 | 15.0 | 0.00 | 0.00 | 0.00 | 36 | 1012.9 |
| 20260506215504 | 52 | 244 | 6.0 | 15.0 | 0.00 | 0.00 | 0.00 | 36 | 1012.8 |
| 20260506215011 | 53 | 323 | 2.0 | 13.0 | 0.00 | 0.00 | 0.00 | 37 | 1012.8 |
| 20260506214525 | 52 | 300 | 5.0 | 17.0 | 0.00 | 0.00 | 0.00 | 36 | 1012.8 |
| 20260506214004 | 52 | 325 | 9.0 | 17.0 | 0.00 | 0.00 | 0.00 | 36 | 1012.8 |
| 20260506213510 | 52 | 315 | 7.0 | 12.0 | 0.00 | 0.00 | 0.00 | 36 | 1012.9 |
| 20260506213028 | 52 | 148 | 3.0 | 13.0 | 0.00 | 0.00 | 0.00 | 37 | 1012.8 |
| 20260506212504 | 52 | 257 | 6.0 | 13.0 | 0.00 | 0.00 | 0.00 | 36 | 1012.8 |
| 20260506212016 | 52 | 285 | 7.0 | 12.0 | 0.00 | 0.00 | 0.00 | 36 | 1012.8 |
| 20260506211526 | 52 | 271 | 3.0 | 11.0 | 0.00 | 0.00 | 0.00 | 36 | 1012.8 |
| 20260506211006 | 53 | 235 | 6.0 | 13.0 | 0.00 | 0.00 | 0.00 | 36 | 1012.8 |
| 20260506210512 | 53 | 15 | 6.0 | 13.0 | 0.00 | 0.00 | 0.00 | 36 | 1012.8 |
| 20260506210046 | 53 | 300 | 7.0 | 13.0 | 0.00 | 0.00 | 0.00 | 35 | 1012.8 |
| 20260506205503 | 54 | 161 | 4.0 | 19.0 | 0.00 | 0.00 | 0.00 | 36 | 1012.8 |
| 20260506205014 | 53 | 258 | 7.0 | 19.0 | 0.00 | 0.00 | 0.00 | 35 | 1012.9 |
| 20260506204530 | 53 | 247 | 6.0 | 13.0 | 0.00 | 0.00 | 0.00 | 36 | 1012.8 |
| 20260506204007 | 53 | 239 | 9.0 | 13.0 | 0.00 | 0.00 | 0.00 | 35 | 1012.9 |
| 20260506203509 | 53 | 5 | 5.0 | 11.0 | 0.00 | 0.00 | 0.00 | 36 | 1012.8 |
| 20260506203027 | 53 | 297 | 4.0 | 12.0 | 0.00 | 0.00 | 0.00 | 36 | 1012.9 |
| 20260506202506 | 53 | 296 | 2.0 | 12.0 | 0.00 | 0.00 | 0.00 | 35 | 1013.0 |
| 20260506202015 | 53 | 244 | 3.0 | 12.0 | 0.00 | 0.00 | 0.00 | 37 | 1013.0 |
| 20260506201513 | 53 | 263 | 7.0 | 13.0 | 0.00 | 0.00 | 0.00 | 37 | 1013.0 |
| 20260506201009 | 52 | 322 | 3.0 | 13.0 | 0.00 | 0.00 | 0.00 | 35 | 1013.1 |
| 20260506200504 | 53 | 310 | 5.0 | 13.0 | 0.00 | 0.00 | 0.00 | 36 | 1013.2 |
| 20260506200011 | 53 | 240 | 5.0 | 11.0 | 0.00 | 0.00 | 0.00 | 35 | 1013.1 |
| 20260506195502 | 53 | 272 | 5.0 | 11.0 | 0.00 | 0.00 | 0.00 | 35 | 1013.0 |
| 20260506195000 | 53 | 227 | 5.0 | 12.0 | 0.00 | 0.00 | 0.00 | 35 | 1013.0 |
| 20260506194516 | 53 | 213 | 3.0 | 17.0 | 0.00 | 0.00 | 0.00 | 36 | 1013.0 |
| 20260506194002 | 53 | 309 | 5.0 | 16.0 | 0.00 | 0.00 | 0.00 | 36 | 1013.0 |
| 20260506193511 | 53 | 206 | 6.0 | 12.0 | 0.00 | 0.00 | 0.00 | 36 | 1013.0 |
| 20260506193036 | 53 | 245 | 6.0 | 14.0 | 0.00 | 0.00 | 0.00 | 36 | 1013.1 |
| 20260506192502 | 54 | 277 | 1.0 | 14.0 | 0.00 | 0.00 | 0.00 | 35 | 1013.0 |
| 20260506192002 | 54 | 252 | 7.0 | 14.0 | 0.00 | 0.00 | 0.00 | 35 | 1012.9 |
| 20260506191515 | 54 | 270 | 5.0 | 14.0 | 0.00 | 0.00 | 0.00 | 36 | 1012.9 |
| 20260506191001 | 53 | 262 | 4.0 | 15.0 | 0.00 | 0.00 | 0.00 | 36 | 1012.9 |
| 20260506190507 | 53 | 172 | 9.0 | 15.0 | 0.00 | 0.00 | 0.00 | 36 | 1013.1 |
| 20260506190031 | 54 | 295 | 3.0 | 13.0 | 0.00 | 0.00 | 0.00 | 36 | 1013.1 |
| 20260506185505 | 53 | 316 | 6.0 | 17.0 | 0.00 | 0.00 | 0.00 | 35 | 1013.1 |
| 20260506185003 | 52 | 215 | 6.0 | 18.0 | 0.00 | 0.00 | 0.00 | 37 | 1013.2 |
| 20260506184519 | 53 | 279 | 10.0 | 18.0 | 0.00 | 0.00 | 0.00 | 37 | 1013.2 |
| 20260506184003 | 53 | 246 | 6.0 | 16.0 | 0.00 | 0.00 | 0.00 | 36 | 1013.0 |
| 20260506183503 | 53 | 261 | 8.0 | 16.0 | 0.00 | 0.00 | 0.00 | 36 | 1013.0 |
| 20260506183019 | 53 | 304 | 9.0 | 15.0 | 0.00 | 0.00 | 0.00 | 36 | 1013.0 |
| 20260506182506 | 52 | 245 | 6.0 | 18.0 | 0.00 | 0.00 | 0.00 | 38 | 1012.9 |
| 20260506182006 | 52 | 226 | 10.0 | 18.0 | 0.00 | 0.00 | 0.00 | 37 | 1013.0 |
| 20260506181534 | 53 | 250 | 10.0 | 16.0 | 0.00 | 0.00 | 0.00 | 37 | 1012.9 |
| 20260506181003 | 53 | 95 | 7.0 | 16.0 | 0.00 | 0.00 | 0.00 | 36 | 1012.8 |
| 20260506180511 | 54 | 306 | 4.0 | 16.0 | 0.00 | 0.00 | 0.00 | 35 | 1012.8 |
| 20260506180025 | 53 | 250 | 5.0 | 17.0 | 0.00 | 0.00 | 0.00 | 35 | 1012.9 |
| 20260506175508 | 53 | 246 | 7.0 | 18.0 | 0.00 | 0.00 | 0.00 | 36 | 1013.0 |
| 20260506175004 | 53 | 261 | 10.0 | 18.0 | 0.00 | 0.00 | 0.00 | 36 | 1013.0 |
| 20260506174522 | 54 | 259 | 7.0 | 16.0 | 0.00 | 0.00 | 0.00 | 36 | 1013.0 |
| 20260506174013 | 54 | 316 | 4.0 | 18.0 | 0.00 | 0.00 | 0.00 | 35 | 1013.0 |
| 20260506173506 | 53 | 229 | 9.0 | 18.0 | 0.00 | 0.00 | 0.00 | 35 | 1013.1 |
| 20260506173028 | 53 | 252 | 6.0 | 15.0 | 0.00 | 0.00 | 0.00 | 37 | 1013.1 |
| 20260506172503 | 52 | 273 | 7.0 | 15.0 | 0.00 | 0.00 | 0.00 | 36 | 1013.2 |
| 20260506172012 | 52 | 248 | 8.0 | 15.0 | 0.00 | 0.00 | 0.00 | 38 | 1013.1 |
| 20260506171504 | 52 | 227 | 8.0 | 12.0 | 0.00 | 0.00 | 0.00 | 37 | 1013.2 |
| 20260506171008 | 51 | 266 | 6.0 | 13.0 | 0.00 | 0.00 | 0.00 | 38 | 1013.3 |
| 20260506170506 | 52 | 347 | 5.0 | 14.0 | 0.00 | 0.00 | 0.00 | 37 | 1013.4 |
| 20260506170003 | 53 | 271 | 6.0 | 14.0 | 0.00 | 0.00 | 0.00 | 36 | 1013.4 |
| 20260506165503 | 52 | 257 | 4.0 | 14.0 | 0.00 | 0.00 | 0.00 | 39 | 1013.5 |
| 20260506165007 | 52 | 236 | 5.0 | 14.0 | 0.00 | 0.00 | 0.00 | 38 | 1013.4 |
| 20260506164517 | 52 | 257 | 4.0 | 16.0 | 0.00 | 0.00 | 0.00 | 38 | 1013.6 |
| 20260506164003 | 52 | 254 | 8.0 | 16.0 | 0.00 | 0.00 | 0.00 | 37 | 1013.5 |
| 20260506163507 | 52 | 221 | 8.0 | 14.0 | 0.00 | 0.00 | 0.00 | 37 | 1013.6 |
| 20260506163010 | 51 | 311 | 5.0 | 14.0 | 0.00 | 0.00 | 0.00 | 38 | 1013.5 |
| 20260506162510 | 51 | 263 | 8.0 | 14.0 | 0.00 | 0.00 | 0.00 | 37 | 1013.5 |
| 20260506162011 | 52 | 323 | 5.0 | 13.0 | 0.00 | 0.00 | 0.00 | 38 | 1013.5 |
| 20260506161504 | 51 | 233 | 4.0 | 15.0 | 0.00 | 0.00 | 0.00 | 38 | 1013.5 |
| 20260506161004 | 51 | 14 | 4.0 | 17.0 | 0.00 | 0.00 | 0.00 | 38 | 1013.5 |
| 20260506160505 | 52 | 317 | 10.0 | 16.0 | 0.00 | 0.00 | 0.00 | 37 | 1013.5 |
| 20260506160006 | 52 | 232 | 7.0 | 16.0 | 0.00 | 0.00 | 0.00 | 39 | 1013.5 |
| 20260506155505 | 50 | 242 | 7.0 | 14.0 | 0.00 | 0.00 | 0.00 | 39 | 1013.5 |
| 20260506155013 | 50 | 192 | 6.0 | 15.0 | 0.00 | 0.00 | 0.00 | 40 | 1013.5 |
| 20260506154507 | 50 | 237 | 7.0 | 15.0 | 0.00 | 0.00 | 0.00 | 40 | 1013.5 |
| 20260506154006 | 51 | 257 | 5.0 | 15.0 | 0.00 | 0.00 | 0.00 | 40 | 1013.5 |
| 20260506153507 | 50 | 234 | 5.0 | 11.0 | 0.00 | 0.00 | 0.00 | 39 | 1013.4 |
| 20260506153006 | 51 | 255 | 6.0 | 15.0 | 0.00 | 0.00 | 0.00 | 38 | 1013.4 |
| 20260506152504 | 52 | 261 | 9.0 | 15.0 | 0.00 | 0.00 | 0.00 | 36 | 1013.2 |
| 20260506152011 | 52 | 251 | 2.0 | 12.0 | 0.00 | 0.00 | 0.00 | 36 | 1013.3 |
| 20260506151514 | 51 | 266 | 5.0 | 14.0 | 0.00 | 0.00 | 0.00 | 37 | 1013.3 |
| 20260506151009 | 51 | 246 | 9.0 | 16.0 | 0.00 | 0.00 | 0.00 | 38 | 1013.4 |
| 20260506150509 | 51 | 265 | 2.0 | 16.0 | 0.00 | 0.00 | 0.00 | 38 | 1013.2 |
| 20260506150011 | 51 | 14 | 2.0 | 11.0 | 0.00 | 0.00 | 0.00 | 37 | 1013.2 |
| 20260506145503 | 51 | 318 | 5.0 | 10.0 | 0.00 | 0.00 | 0.00 | 37 | 1013.3 |
| 20260506145017 | 52 | 247 | 5.0 | 14.0 | 0.00 | 0.00 | 0.00 | 36 | 1013.4 |
| 20260506144521 | 52 | 265 | 7.0 | 14.0 | 0.00 | 0.00 | 0.00 | 35 | 1013.3 |
| 20260506144013 | 51 | 243 | 7.0 | 11.0 | 0.00 | 0.00 | 0.00 | 37 | 1013.4 |
| 20260506143512 | 51 | 254 | 5.0 | 10.0 | 0.00 | 0.00 | 0.00 | 39 | 1013.4 |
| 20260506143031 | 51 | 278 | 4.0 | 9.0 | 0.00 | 0.00 | 0.00 | 37 | 1013.3 |
| 20260506142506 | 51 | 86 | 1.0 | 9.0 | 0.00 | 0.00 | 0.00 | 38 | 1013.3 |
| 20260506142007 | 51 | 252 | 4.0 | 11.0 | 0.00 | 0.00 | 0.00 | 39 | 1013.4 |
| 20260506141525 | 51 | 229 | 5.0 | 11.0 | 0.00 | 0.00 | 0.00 | 39 | 1013.2 |
| 20260506141008 | 50 | 247 | 3.0 | 9.0 | 0.00 | 0.00 | 0.00 | 39 | 1013.2 |
| 20260506140503 | 50 | 263 | 2.0 | 8.0 | 0.00 | 0.00 | 0.00 | 41 | 1013.2 |
| 20260506140016 | 50 | 275 | 3.0 | 8.0 | 0.00 | 0.00 | 0.00 | 41 | 1013.3 |
| 20260506135508 | 50 | 229 | 1.0 | 9.0 | 0.00 | 0.00 | 0.00 | 43 | 1013.2 |
| 20260506135012 | 49 | 302 | 4.0 | 12.0 | 0.00 | 0.00 | 0.00 | 43 | 1013.2 |
| 20260506134516 | 50 | 257 | 6.0 | 12.0 | 0.00 | 0.00 | 0.00 | 40 | 1013.1 |
| 20260506134010 | 50 | 287 | 3.0 | 8.0 | 0.00 | 0.00 | 0.00 | 45 | 1013.1 |
| 20260506133504 | 49 | 256 | 1.0 | 6.0 | 0.00 | 0.00 | 0.00 | 45 | 1013.0 |
| 20260506133019 | 49 | 269 | 3.0 | 6.0 | 0.00 | 0.00 | 0.00 | 47 | 1013.1 |
| 20260506132508 | 49 | 177 | 3.0 | 5.0 | 0.00 | 0.00 | 0.00 | 47 | 1013.1 |
| 20260506132003 | 49 | 259 | 2.0 | 10.0 | 0.00 | 0.00 | 0.00 | 47 | 1013.0 |
| 20260506131522 | 48 | 243 | 2.0 | 10.0 | 0.00 | 0.00 | 0.00 | 48 | 1013.0 |
| 20260506131006 | 48 | 221 | 2.0 | 6.0 | 0.00 | 0.00 | 0.00 | 49 | 1012.9 |
| 20260506130506 | 47 | 262 | 2.0 | 6.0 | 0.00 | 0.00 | 0.00 | 50 | 1012.9 |
| 20260506130020 | 45 | 205 | 2.0 | 3.0 | 0.00 | 0.00 | 0.00 | 54 | 1012.9 |
| 20260506125512 | 46 | 196 | 1.0 | 3.0 | 0.00 | 0.00 | 0.00 | 54 | 1012.9 |
| 20260506125005 | 45 | 162 | 1.0 | 3.0 | 0.00 | 0.00 | 0.00 | 56 | 1012.9 |
| 20260506124521 | 44 | 215 | 1.0 | 3.0 | 0.00 | 0.00 | 0.00 | 57 | 1012.8 |
| 20260506124007 | 44 | 194 | 1.0 | 2.0 | 0.00 | 0.00 | 0.00 | 57 | 1012.8 |
| 20260506123503 | 43 | 183 | 0.0 | 2.0 | 0.00 | 0.00 | 0.00 | 60 | 1012.7 |
| 20260506123022 | 42 | 178 | 1.0 | 2.0 | 0.00 | 0.00 | 0.00 | 62 | 1012.7 |
| 20260506122507 | 42 | 191 | 0.0 | 0.0 | 0.00 | 0.00 | 0.00 | 65 | 1012.7 |
| 20260506122007 | 41 | 210 | 0.0 | 0.0 | 0.00 | 0.00 | 0.00 | 67 | 1012.6 |
| 20260506121530 | 41 | 219 | 0.0 | 0.0 | 0.00 | 0.00 | 0.00 | 66 | 1012.7 |
| 20260506121009 | 40 | 219 | 0.0 | 0.0 | 0.00 | 0.00 | 0.00 | 68 | 1012.7 |
| 20260506120504 | 39 | 219 | 0.0 | 0.0 | 0.00 | 0.00 | 0.00 | 71 | 1012.8 |
| 20260506120047 | 38 | 219 | 0.0 | 0.0 | 0.00 | 0.00 | 0.00 | 72 | 1012.8 |
| 20260506115508 | 38 | 219 | 0.0 | 0.0 | 0.00 | 0.00 | 0.00 | 74 | 1012.7 |
| 20260506115004 | 37 | 219 | 0.0 | 0.0 | 0.00 | 0.00 | 0.00 | 74 | 1012.7 |
| 20260506114523 | 36 | 219 | 0.0 | 0.0 | 0.00 | 0.00 | 0.00 | 75 | 1012.6 |
| 20260506114012 | 36 | 219 | 0.0 | 0.0 | 0.00 | 0.00 | 0.00 | 76 | 1012.4 |
| 20260506113506 | 35 | 219 | 0.0 | 0.0 | 0.00 | 0.00 | 0.00 | 78 | 1012.3 |
| 20260506113025 | 35 | 219 | 0.0 | 0.0 | 0.00 | 0.00 | 0.00 | 78 | 1012.3 |
| 20260506112510 | 34 | 219 | 0.0 | 0.0 | 0.00 | 0.00 | 0.00 | 78 | 1012.2 |
| 20260506112010 | 34 | 219 | 0.0 | 0.0 | 0.00 | 0.00 | 0.00 | 78 | 1012.2 |
| 20260506111527 | 34 | 219 | 0.0 | 0.0 | 0.00 | 0.00 | 0.00 | 78 | 1012.2 |
| 20260506111010 | 35 | 219 | 0.0 | 0.0 | 0.00 | 0.00 | 0.00 | 77 | 1012.1 |
| 20260506110506 | 35 | 219 | 0.0 | 0.0 | 0.00 | 0.00 | 0.00 | 77 | 1012.1 |
| 20260506110006 | 35 | 219 | 0.0 | 0.0 | 0.00 | 0.00 | 0.00 | 78 | 1012.1 |
| 20260506105505 | 34 | 219 | 0.0 | 0.0 | 0.00 | 0.00 | 0.00 | 78 | 1011.9 |
| 20260506105002 | 34 | 219 | 0.0 | 0.0 | 0.00 | 0.00 | 0.00 | 78 | 1011.9 |
| 20260506104513 | 35 | 219 | 0.0 | 0.0 | 0.00 | 0.00 | 0.00 | 78 | 1011.9 |
| 20260506104006 | 35 | 219 | 0.0 | 0.0 | 0.00 | 0.00 | 0.00 | 78 | 1011.8 |
| 20260506103502 | 35 | 219 | 0.0 | 0.0 | 0.00 | 0.00 | 0.00 | 78 | 1011.8 |
| 20260506103018 | 35 | 219 | 0.0 | 0.0 | 0.00 | 0.00 | 0.00 | 79 | 1011.8 |
| 20260506102507 | 35 | 219 | 0.0 | 0.0 | 0.00 | 0.00 | 0.00 | 79 | 1011.7 |
| 20260506102003 | 35 | 219 | 0.0 | 0.0 | 0.00 | 0.00 | 0.00 | 79 | 1011.7 |
| 20260506101509 | 35 | 219 | 0.0 | 0.0 | 0.00 | 0.00 | 0.00 | 79 | 1011.7 |
| 20260506101005 | 35 | 219 | 0.0 | 0.0 | 0.00 | 0.00 | 0.00 | 78 | 1011.8 |
| 20260506100502 | 35 | 219 | 0.0 | 0.0 | 0.00 | 0.00 | 0.00 | 78 | 1011.8 |
| 20260506100011 | 35 | 219 | 0.0 | 0.0 | 0.00 | 0.00 | 0.00 | 78 | 1011.8 |
| 20260506095506 | 35 | 219 | 0.0 | 0.0 | 0.00 | 0.00 | 0.00 | 78 | 1011.7 |
| 20260506095004 | 35 | 219 | 0.0 | 0.0 | 0.00 | 0.00 | 0.00 | 77 | 1011.6 |
| 20260506094512 | 35 | 219 | 0.0 | 0.0 | 0.00 | 0.00 | 0.00 | 77 | 1011.6 |
| 20260506094007 | 35 | 219 | 0.0 | 0.0 | 0.00 | 0.00 | 0.00 | 76 | 1011.7 |
| 20260506093503 | 35 | 219 | 0.0 | 0.0 | 0.00 | 0.00 | 0.00 | 76 | 1011.8 |
| 20260506093018 | 36 | 219 | 0.0 | 0.0 | 0.00 | 0.00 | 0.00 | 76 | 1011.9 |
| 20260506092507 | 35 | 219 | 0.0 | 0.0 | 0.00 | 0.00 | 0.00 | 76 | 1011.9 |
| 20260506092003 | 35 | 219 | 0.0 | 0.0 | 0.00 | 0.00 | 0.00 | 76 | 1011.8 |
| 20260506091517 | 35 | 219 | 0.0 | 0.0 | 0.00 | 0.00 | 0.00 | 77 | 1011.8 |
| 20260506091006 | 35 | 200 | 0.0 | 0.0 | 0.00 | 0.00 | 0.00 | 76 | 1012.0 |
| 20260506090502 | 36 | 206 | 0.0 | 0.0 | 0.00 | 0.00 | 0.00 | 76 | 1011.8 |
| 20260506090016 | 36 | 213 | 0.0 | 0.0 | 0.00 | 0.00 | 0.00 | 76 | 1011.7 |
| 20260506085505 | 36 | 213 | 0.0 | 0.0 | 0.00 | 0.00 | 0.00 | 75 | 1011.8 |
| 20260506085002 | 36 | 213 | 0.0 | 0.0 | 0.00 | 0.00 | 0.00 | 75 | 1011.6 |
| 20260506084525 | 36 | 213 | 0.0 | 0.0 | 0.00 | 0.00 | 0.00 | 74 | 1011.6 |
| 20260506084010 | 36 | 213 | 0.0 | 0.0 | 0.00 | 0.00 | 0.00 | 74 | 1011.6 |
| 20260506083503 | 37 | 213 | 0.0 | 0.0 | 0.00 | 0.00 | 0.00 | 73 | 1011.5 |
| 20260506083017 | 37 | 213 | 0.0 | 0.0 | 0.00 | 0.00 | 0.00 | 72 | 1011.5 |
| 20260506082507 | 37 | 247 | 0.0 | 0.0 | 0.00 | 0.00 | 0.00 | 71 | 1011.5 |
| 20260506082003 | 37 | 247 | 0.0 | 0.0 | 0.00 | 0.00 | 0.00 | 71 | 1011.4 |
| 20260506081518 | 37 | 247 | 0.0 | 0.0 | 0.00 | 0.00 | 0.00 | 71 | 1011.4 |
| 20260506081010 | 37 | 247 | 0.0 | 0.0 | 0.00 | 0.00 | 0.00 | 70 | 1011.4 |
| 20260506080504 | 38 | 348 | 0.0 | 0.0 | 0.00 | 0.00 | 0.00 | 70 | 1011.3 |
| 20260506073503 | 39 | 348 | 0.0 | 0.0 | 0.00 | 0.00 | 0.00 | 66 | 1011.0 |
| 20260506073030 | 39 | 348 | 0.0 | 0.0 | 0.00 | 0.00 | 0.00 | 66 | 1011.0 |
| 20260506072509 | 39 | 348 | 0.0 | 0.0 | 0.00 | 0.00 | 0.00 | 65 | 1011.0 |
| 20260506072003 | 39 | 348 | 0.0 | 0.0 | 0.00 | 0.00 | 0.00 | 65 | 1011.0 |
| 20260506071519 | 39 | 348 | 0.0 | 0.0 | 0.00 | 0.00 | 0.00 | 64 | 1011.2 |
| 20260506071009 | 40 | 348 | 0.0 | 2.0 | 0.00 | 0.00 | 0.00 | 64 | 1011.1 |
| 20260506070502 | 40 | 348 | 0.0 | 2.0 | 0.00 | 0.00 | 0.00 | 62 | 1011.2 |
| 20260506062503 | 43 | 350 | 0.0 | 2.0 | 0.00 | 0.00 | 0.00 | 47 | 1011.3 |
| 20260506062006 | 43 | 352 | 1.0 | 2.0 | 0.00 | 0.00 | 0.00 | 47 | 1011.2 |
| 20260506061526 | 43 | 352 | 0.0 | 2.0 | 0.00 | 0.00 | 0.00 | 47 | 1011.2 |
| 20260506061003 | 44 | 352 | 0.0 | 3.0 | 0.00 | 0.00 | 0.00 | 47 | 1011.3 |
| 20260506060505 | 44 | 352 | 2.0 | 3.0 | 0.00 | 0.00 | 0.00 | 46 | 1011.2 |
| 20260506051003 | 45 | 5 | 0.0 | 2.0 | 0.00 | 0.00 | 0.00 | 45 | 1011.5 |
| 20260506050506 | 44 | 5 | 0.0 | 2.0 | 0.00 | 0.00 | 0.00 | 47 | 1011.6 |
| 20260506045010 | 45 | 11 | 1.0 | 2.0 | 0.00 | 0.00 | 0.00 | 45 | 1011.5 |
| 20260506044536 | 45 | 9 | 1.0 | 2.0 | 0.00 | 0.00 | 0.00 | 45 | 1011.5 |
| 20260506044004 | 45 | 352 | 1.0 | 2.0 | 0.00 | 0.00 | 0.00 | 45 | 1011.4 |
| 20260506043509 | 45 | 360 | 1.0 | 3.0 | 0.00 | 0.00 | 0.00 | 44 | 1011.4 |
| 20260506043030 | 45 | 15 | 1.0 | 3.0 | 0.00 | 0.00 | 0.00 | 44 | 1011.4 |
| 20260506042504 | 45 | 32 | 0.0 | 2.0 | 0.00 | 0.00 | 0.00 | 43 | 1011.4 |
| 20260506042009 | 46 | 9 | 0.0 | 2.0 | 0.00 | 0.00 | 0.00 | 43 | 1011.3 |
| 20260506041530 | 46 | 22 | 0.0 | 2.0 | 0.00 | 0.00 | 0.00 | 43 | 1011.2 |
| 20260506041003 | 46 | 342 | 0.0 | 2.0 | 0.00 | 0.00 | 0.00 | 43 | 1011.1 |
| 20260506040506 | 46 | 325 | 0.0 | 2.0 | 0.00 | 0.00 | 0.00 | 42 | 1011.1 |
| 20260506040033 | 46 | 352 | 0.0 | 2.0 | 0.00 | 0.00 | 0.00 | 43 | 1011.1 |
| 20260506035508 | 46 | 18 | 0.0 | 2.0 | 0.00 | 0.00 | 0.00 | 42 | 1011.1 |
| 20260506035006 | 46 | 35 | 0.0 | 3.0 | 0.00 | 0.00 | 0.00 | 42 | 1011.0 |
| 20260506034533 | 47 | 69 | 0.0 | 3.0 | 0.00 | 0.00 | 0.00 | 41 | 1011.0 |
| 20260506034005 | 47 | 66 | 1.0 | 5.0 | 0.00 | 0.00 | 0.00 | 41 | 1011.0 |
| 20260506033511 | 47 | 320 | 0.0 | 5.0 | 0.00 | 0.00 | 0.00 | 41 | 1011.0 |
| 20260506033030 | 47 | 9 | 2.0 | 6.0 | 0.00 | 0.00 | 0.00 | 41 | 1011.1 |
| 20260506032507 | 47 | 15 | 2.0 | 6.0 | 0.00 | 0.00 | 0.00 | 41 | 1011.1 |
| 20260506032012 | 47 | 37 | 2.0 | 3.0 | 0.00 | 0.00 | 0.00 | 41 | 1011.0 |
| 20260506031539 | 48 | 9 | 1.0 | 5.0 | 0.00 | 0.00 | 0.00 | 41 | 1011.0 |
| 20260506031007 | 48 | 74 | 2.0 | 5.0 | 0.00 | 0.00 | 0.00 | 40 | 1011.0 |
| 20260506030509 | 48 | 96 | 2.0 | 4.0 | 0.00 | 0.00 | 0.00 | 40 | 1010.9 |
| 20260506030016 | 48 | 59 | 1.0 | 7.0 | 0.00 | 0.00 | 0.00 | 40 | 1010.8 |
| 20260506025506 | 48 | 43 | 2.0 | 7.0 | 0.00 | 0.00 | 0.00 | 39 | 1010.8 |
| 20260506025012 | 49 | 332 | 1.0 | 5.0 | 0.00 | 0.00 | 0.00 | 39 | 1010.8 |
| 20260506024518 | 49 | 59 | 2.0 | 4.0 | 0.00 | 0.00 | 0.00 | 38 | 1010.7 |